[Show "Revision History"] [Show "General Page Infos"] [Show "Page hits and edits"]

Revision History

Showing page edit history entries from 1 to 36 out of 36 entries total. (5 | 10 | 25 | 50 | 100 | 200 items per page)

# Date Size Editor Comment Action
36 2011-06-15 05:19:49 19828 to previous gdapenny   view
35 2011-06-14 15:27:44 19278 to previous NoelBergman Close Report view
34 2011-06-14 14:17:28 19245 to previous KevanMiller   view
33 2011-06-14 12:54:33 19239 to previous YuriZ   view
32 2011-06-14 12:53:38 19214 to previous YuriZ   view
31 2011-06-14 09:23:26 17920 to previous struberg   view
30 2011-06-14 08:37:07 16992 to previous struberg   view
29 2011-06-14 08:25:01 15967 to previous antelder   view
28 2011-06-13 21:05:42 15963 to previous MateiZaharia   view
27 2011-06-13 14:48:25 16046 to previous SureshMarru Refined the goals view
26 2011-06-12 09:16:41 15745 to previous ChristianGrobmeier signed view
25 2011-06-12 09:14:05 15735 to previous AteDouma   view
24 2011-06-11 21:28:59 15730 to previous ChrisMattmann stub report for Airavata view
23 2011-06-11 21:18:33 14452 to previous ChrisMattmann preapp Gora report view
22 2011-06-11 21:17:33 14442 to previous ChrisMattmann Add Gora report view
21 2011-06-11 11:51:22 13188 to previous GrantIngersoll   view
20 2011-06-11 11:17:46 13099 to previous joern   view
19 2011-06-11 05:04:40 12145 to previous AlanGates   view
18 2011-06-10 08:41:27 11524 to previous StefanBodewig extend RAT report view
17 2011-06-08 16:21:56 11325 to previous TommasoTeofili   view
16 2011-06-08 12:42:22 11325 to previous HolgerGrandy   view
15 2011-06-08 05:33:57 9998 to previous udanax Add hama report view
14 2011-06-07 20:44:58 8944 to previous PatrickHunt   view
13 2011-06-07 14:54:03 8292 to previous RobertBurrellDonkin   view
12 2011-06-07 14:51:30 8203 to previous RobertBurrellDonkin Reviewed Kato submission view
11 2011-06-07 09:07:36 8120 to previous monteith   view
10 2011-06-06 23:49:46 7390 to previous RossGardler sign off rave view
9 2011-06-06 21:22:30 7381 to previous MattFranklin Updated Rave section for June's reporting period view
8 2011-06-06 10:56:33 6188 to previous OlivierLamy   view
7 2011-06-05 11:42:41 4712 to previous Urs Lerch   view
6 2011-06-05 10:20:49 4413 to previous ChristianGrobmeier added alois project status view
5 2011-06-03 12:38:05 3936 to previous TommasoTeofili   view
4 2011-06-01 17:48:12 3920 to previous KarlWright   view
3 2011-06-01 04:30:44 2190 to previous DavidCrossley start the next template view
2 2011-06-01 04:03:37 1038 to previous DavidCrossley Add deadline date. view
1 2011-06-01 03:59:44 1039 DavidCrossley restore the template text view